Time,TemperatureF,DewpointF,PressureIn,WindDirection,WindDirectionDegrees,WindSpeedMPH,WindSpeedGustMPH,Humidity,HourlyPrecipIn,Conditions,Clouds,dailyrainin,SolarRadiationWatts/m^2,SoftwareType,DateUTC
2013-10-15 00:01:00,52.3,48.6,30.24,ENE,68,2.3,2.3,87,0.00,CLR,,0.00,0.0,WeatherDisplay:10.37,2013-10-15 04:01:00,
2013-10-15 00:06:00,52.2,48.4,30.24,ENE,68,3.1,3.1,87,0.00,CLR,,0.00,0.0,WeatherDisplay:10.37,2013-10-15 04:06:00,
2013-10-15 00:11:00,52.2,48.4,30.24,ENE,68,3.5,3.5,87,0.00,CLR,,0.00,0.0,WeatherDisplay:10.37,2013-10-15 04:11:00,
2013-10-15 00:16:00,51.8,48.1,30.24,ESE,112,2.9,2.9,87,0.00,CLR,,0.00,0.0,WeatherDisplay:10.37,2013-10-15 04:16:00,
2013-10-15 00:21:00,51.8,48.4,30.24,ENE,68,4.6,4.6,88,0.00,CLR,,0.00,0.0,WeatherDisplay:10.37,2013-10-15 04:21:00,
2013-10-15 00:26:00,51.8,48.4,30.24,ENE,68,4.6,4.6,88,0.00,CLR,,0.00,0.0,WeatherDisplay:10.37,2013-10-15 04:26:00,
2013-10-15 00:31:00,51.6,48.2,30.24,ENE,68,3.5,3.5,88,0.00,CLR,,0.00,0.0,WeatherDisplay:10.37,2013-10-15 04:31:00,
2013-10-15 00:36:00,51.6,48.5,30.24,SE,135,4.6,4.6,89,0.00,CLR,,0.00,0.0,WeatherDisplay:10.37,2013-10-15 04:36:00,
2013-10-15 00:41:00,51.8,48.7,30.24,ENE,68,4.6,4.6,89,0.00,CLR,,0.00,0.0,WeatherDisplay:10.37,2013-10-15 04:41:00,
2013-10-15 00:46:00,51.6,48.5,30.24,ENE,68,4.6,4.6,89,0.00,CLR,,0.00,0.0,WeatherDisplay:10.37,2013-10-15 04:46:00,
2013-10-15 00:51:00,51.4,48.3,30.24,ENE,68,2.6,2.6,89,0.00,CLR,,0.00,0.0,WeatherDisplay:10.37,2013-10-15 04:51:00,
2013-10-15 00:56:00,51.4,48.3,30.24,ENE,68,2.3,2.3,89,0.00,CLR,,0.00,0.0,WeatherDisplay:10.37,2013-10-15 04:56:00,
2013-10-15 01:01:00,51.3,48.1,30.24,ENE,68,2.4,2.4,89,0.00,CLR,,0.00,0.0,WeatherDisplay:10.37,2013-10-15 05:01:00,
2013-10-15 01:06:00,51.1,48.2,30.24,ENE,68,3.6,3.6,90,0.00,CLR,,0.00,0.0,WeatherDisplay:10.37,2013-10-15 05:06:00,
2013-10-15 01:11:00,50.9,48.1,30.24,ENE,68,3.5,0.0,90,0.00,CLR,,0.00,0.0,WeatherDisplay:10.37,2013-10-15 05:11:00,
2013-10-15 01:16:00,50.7,47.9,30.21,ENE,68,2.3,2.4,90,0.00,CLR,,0.00,0.0,WeatherDisplay:10.37,2013-10-15 05:16:00,
2013-10-15 01:21:00,50.5,48.0,30.21,ENE,68,2.3,2.3,91,0.00,CLR,,0.00,0.0,WeatherDisplay:10.37,2013-10-15 05:21:00,
2013-10-15 01:27:00,50.4,47.8,30.21,ENE,68,2.9,2.9,91,0.00,CLR,,0.00,0.0,WeatherDisplay:10.37,2013-10-15 05:27:00,
2013-10-15 01:31:00,50.4,47.8,30.21,ENE,68,3.5,3.5,91,0.00,CLR,,0.00,0.0,WeatherDisplay:10.37,2013-10-15 05:31:00,
2013-10-15 01:37:00,50.5,48.3,30.21,ENE,68,3.5,3.5,92,0.00,CLR,,0.00,0.0,WeatherDisplay:10.37,2013-10-15 05:37:00,
2013-10-15 01:42:00,50.5,48.3,30.21,ENE,68,3.5,3.5,92,0.00,CLR,,0.00,0.0,WeatherDisplay:10.37,2013-10-15 05:42:00,
2013-10-15 01:47:00,50.4,48.1,30.21,ENE,68,2.9,2.9,92,0.00,CLR,,0.00,0.0,WeatherDisplay:10.37,2013-10-15 05:47:00,
2013-10-15 01:52:00,50.2,47.9,30.21,NNE,22,2.3,2.3,92,0.00,CLR,,0.00,0.0,WeatherDisplay:10.37,2013-10-15 05:52:00,
2013-10-15 01:57:00,50.0,47.8,30.21,East,90,2.0,2.0,92,0.00,CLR,,0.00,0.0,WeatherDisplay:10.37,2013-10-15 05:57:00,
2013-10-15 02:02:00,49.8,47.6,30.21,NNE,22,2.3,2.3,92,0.00,CLR,,0.00,0.0,WeatherDisplay:10.37,2013-10-15 06:02:00,
2013-10-15 02:07:00,49.6,47.4,30.21,East,90,2.3,2.3,92,0.00,CLR,,0.00,0.0,WeatherDisplay:10.37,2013-10-15 06:07:00,
2013-10-15 02:12:00,49.6,47.7,30.21,ENE,68,3.5,3.5,93,0.00,CLR,,0.00,0.0,WeatherDisplay:10.37,2013-10-15 06:12:00,
2013-10-15 02:17:00,49.5,47.5,30.21,ENE,68,2.3,2.3,93,0.00,CLR,,0.00,0.0,WeatherDisplay:10.37,2013-10-15 06:17:00,
2013-10-15 02:22:00,49.5,47.8,30.21,ENE,68,2.3,2.3,94,0.00,CLR,,0.00,0.0,WeatherDisplay:10.37,2013-10-15 06:22:00,
2013-10-15 02:27:00,49.5,47.8,30.21,ENE,68,2.3,2.3,94,0.00,CLR,,0.00,0.0,WeatherDisplay:10.37,2013-10-15 06:27:00,
2013-10-15 02:32:00,49.1,47.4,30.18,East,90,0.0,0.0,94,0.00,CLR,,0.00,0.0,WeatherDisplay:10.37,2013-10-15 06:32:00,
2013-10-15 02:37:00,48.7,47.1,30.18,ENE,68,2.3,0.0,94,0.00,CLR,,0.00,0.0,WeatherDisplay:10.37,2013-10-15 06:37:00,
2013-10-15 02:42:00,48.6,46.9,30.18,ENE,68,2.0,0.0,94,0.00,CLR,,0.00,0.0,WeatherDisplay:10.37,2013-10-15 06:42:00,
2013-10-15 02:47:00,48.4,46.7,30.18,ENE,68,1.2,1.2,94,0.00,CLR,,0.00,0.0,WeatherDisplay:10.37,2013-10-15 06:47:00,
2013-10-15 02:52:00,48.4,46.7,30.18,ENE,68,1.2,0.0,94,0.00,CLR,,0.00,0.0,WeatherDisplay:10.37,2013-10-15 06:52:00,
2013-10-15 02:57:00,48.2,46.6,30.18,ENE,68,2.3,2.3,94,0.00,CLR,,0.00,0.0,WeatherDisplay:10.37,2013-10-15 06:57:00,
2013-10-15 03:02:00,48.2,46.8,30.21,East,90,2.3,2.3,95,0.00,CLR,,0.00,0.0,WeatherDisplay:10.37,2013-10-15 07:02:00,
2013-10-15 03:07:00,48.4,47.0,30.21,ENE,68,1.2,0.0,95,0.00,CLR,,0.00,0.0,WeatherDisplay:10.37,2013-10-15 07:07:00,
2013-10-15 03:12:00,48.0,46.7,30.21,ESE,112,0.0,0.0,95,0.00,CLR,,0.00,0.0,WeatherDisplay:10.37,2013-10-15 07:12:00,
2013-10-15 03:17:00,48.0,46.7,30.18,ENE,68,1.2,0.0,95,0.00,CLR,,0.00,0.0,WeatherDisplay:10.37,2013-10-15 07:17:00,
2013-10-15 03:22:00,47.8,46.5,30.18,ENE,68,0.9,0.0,95,0.00,CLR,,0.00,0.0,WeatherDisplay:10.37,2013-10-15 07:22:00,
2013-10-15 03:27:00,47.8,46.5,30.18,ENE,68,1.2,1.2,95,0.00,CLR,,0.00,0.0,WeatherDisplay:10.37,2013-10-15 07:27:00,
2013-10-15 03:32:00,48.0,46.9,30.18,ENE,68,2.3,2.3,96,0.00,CLR,,0.00,0.0,WeatherDisplay:10.37,2013-10-15 07:32:00,
2013-10-15 03:37:00,48.0,46.9,30.18,ENE,68,2.3,0.0,96,0.00,CLR,,0.00,0.0,WeatherDisplay:10.37,2013-10-15 07:37:00,
2013-10-15 03:42:00,48.4,47.3,30.18,ENE,68,2.9,2.9,96,0.00,CLR,,0.00,0.0,WeatherDisplay:10.37,2013-10-15 07:42:00,
2013-10-15 03:47:00,48.4,47.3,30.18,East,90,2.9,2.9,96,0.00,CLR,,0.00,0.0,WeatherDisplay:10.37,2013-10-15 07:47:00,
2013-10-15 03:52:00,48.4,47.3,30.18,ENE,68,2.3,0.0,96,0.00,CLR,,0.00,0.0,WeatherDisplay:10.37,2013-10-15 07:52:00,
2013-10-15 03:57:00,48.4,47.3,30.18,ENE,68,2.3,2.3,96,0.00,CLR,,0.00,0.0,WeatherDisplay:10.37,2013-10-15 07:57:00,
2013-10-15 04:02:00,48.2,47.1,30.18,ENE,68,0.0,0.0,96,0.00,CLR,,0.00,0.0,WeatherDisplay:10.37,2013-10-15 08:02:00,
2013-10-15 04:07:00,48.4,47.3,30.18,ENE,68,2.3,2.3,96,0.00,CLR,,0.00,0.0,WeatherDisplay:10.37,2013-10-15 08:07:00,
2013-10-15 04:12:00,48.4,47.3,30.18,ENE,68,1.2,0.0,96,0.00,CLR,,0.00,0.0,WeatherDisplay:10.37,2013-10-15 08:12:00,
2013-10-15 04:17:00,48.2,47.1,30.15,ENE,68,0.0,0.0,96,0.00,CLR,,0.00,0.0,WeatherDisplay:10.37,2013-10-15 08:17:00,
2013-10-15 04:22:00,48.2,47.1,30.15,ENE,68,0.0,0.0,96,0.00,CLR,,0.00,0.0,WeatherDisplay:10.37,2013-10-15 08:22:00,
2013-10-15 04:27:00,48.2,47.1,30.15,ENE,68,3.5,3.5,96,0.00,CLR,,0.00,0.0,WeatherDisplay:10.37,2013-10-15 08:27:00,
2013-10-15 04:32:00,48.2,47.1,30.18,ENE,68,1.2,0.0,96,0.00,CLR,,0.00,0.0,WeatherDisplay:10.37,2013-10-15 08:32:00,
2013-10-15 04:37:00,48.2,47.1,30.18,ENE,68,1.2,0.0,96,0.00,CLR,,0.00,0.0,WeatherDisplay:10.37,2013-10-15 08:37:00,
2013-10-15 04:42:00,48.0,46.9,30.18,ENE,68,2.3,2.3,96,0.00,CLR,,0.00,0.0,WeatherDisplay:10.37,2013-10-15 08:42:00,
2013-10-15 04:47:00,48.2,47.1,30.18,ENE,68,2.3,0.0,96,0.00,CLR,,0.00,0.0,WeatherDisplay:10.37,2013-10-15 08:47:00,
2013-10-15 04:50:00,48.2,47.1,30.18,ENE,68,2.3,2.3,96,0.00,CLR,,0.00,0.0,WeatherDisplay:10.37,2013-10-15 08:50:00,
2013-10-15 04:55:00,48.4,47.6,30.18,ENE,68,3.5,3.5,97,0.00,CLR,,0.00,0.0,WeatherDisplay:10.37,2013-10-15 08:55:00,
2013-10-15 05:00:00,48.4,47.8,30.18,ESE,112,3.5,3.5,98,0.00,CLR,,0.00,0.0,WeatherDisplay:10.37,2013-10-15 09:00:00,
2013-10-15 05:05:00,48.4,47.8,30.18,ENE,68,3.5,3.5,98,0.00,CLR,,0.00,0.0,WeatherDisplay:10.37,2013-10-15 09:05:00,
2013-10-15 05:10:00,48.6,48.0,30.18,ENE,68,3.5,3.5,98,0.00,CLR,,0.00,0.0,WeatherDisplay:10.37,2013-10-15 09:10:00,
2013-10-15 05:15:00,48.6,48.0,30.18,ENE,68,2.6,2.6,98,0.00,CLR,,0.00,0.0,WeatherDisplay:10.37,2013-10-15 09:15:00,
2013-10-15 05:20:00,48.7,48.2,30.18,ENE,68,2.3,2.3,98,0.00,CLR,,0.00,0.0,WeatherDisplay:10.37,2013-10-15 09:20:00,
2013-10-15 05:25:00,48.7,48.2,30.18,East,90,3.5,3.5,98,0.00,CLR,,0.00,0.0,WeatherDisplay:10.37,2013-10-15 09:25:00,
2013-10-15 05:30:00,48.9,48.4,30.18,East,90,3.5,3.5,98,0.00,CLR,,0.00,0.0,WeatherDisplay:10.37,2013-10-15 09:30:00,
2013-10-15 05:35:00,49.1,48.6,30.18,ESE,112,4.6,4.6,98,0.00,CLR,,0.00,0.0,WeatherDisplay:10.37,2013-10-15 09:35:00,
2013-10-15 05:40:00,49.5,48.9,30.18,ESE,112,4.0,4.0,98,0.00,CLR,,0.00,0.0,WeatherDisplay:10.37,2013-10-15 09:40:00,
2013-10-15 05:45:00,49.6,49.1,30.18,ENE,68,4.6,4.6,98,0.00,CLR,,0.00,0.0,WeatherDisplay:10.37,2013-10-15 09:45:00,
2013-10-15 05:50:00,50.2,49.6,30.18,ENE,68,5.8,5.8,98,0.00,CLR,,0.00,0.0,WeatherDisplay:10.37,2013-10-15 09:50:00,
2013-10-15 05:55:00,50.4,49.8,30.18,East,90,5.4,5.4,98,0.00,CLR,,0.00,0.0,WeatherDisplay:10.37,2013-10-15 09:55:00,
2013-10-15 06:00:00,50.5,50.0,30.15,ESE,112,9.2,9.2,98,0.00,CLR,,0.00,0.0,WeatherDisplay:10.37,2013-10-15 10:00:00,
2013-10-15 06:05:00,50.5,50.0,30.15,ENE,68,5.8,5.8,98,0.00,CLR,,0.00,0.0,WeatherDisplay:10.37,2013-10-15 10:05:00,
2013-10-15 06:10:00,50.5,50.0,30.15,ENE,68,4.9,4.9,98,0.00,CLR,,0.00,0.0,WeatherDisplay:10.37,2013-10-15 10:10:00,
2013-10-15 06:15:00,50.5,50.0,30.18,ESE,112,5.8,5.8,98,0.00,CLR,,0.00,0.0,WeatherDisplay:10.37,2013-10-15 10:15:00,
2013-10-15 06:20:00,50.4,49.8,30.18,ENE,68,5.8,5.8,98,0.00,CLR,,0.00,0.0,WeatherDisplay:10.37,2013-10-15 10:20:00,
2013-10-15 06:25:00,50.2,49.6,30.18,ENE,68,4.6,4.6,98,0.00,CLR,,0.00,0.0,WeatherDisplay:10.37,2013-10-15 10:25:00,
2013-10-15 06:30:00,50.2,49.6,30.15,ENE,68,6.2,6.2,98,0.00,CLR,,0.00,0.0,WeatherDisplay:10.37,2013-10-15 10:30:00,
2013-10-15 06:35:00,50.0,49.5,30.15,ENE,68,3.6,3.6,98,0.00,CLR,,0.00,0.0,WeatherDisplay:10.37,2013-10-15 10:35:00,
2013-10-15 06:40:00,50.0,49.5,30.15,ESE,112,3.1,3.1,98,0.00,CLR,,0.00,0.0,WeatherDisplay:10.37,2013-10-15 10:40:00,
2013-10-15 06:45:00,50.0,49.5,30.15,ESE,112,3.5,3.5,98,0.00,CLR,,0.00,0.0,WeatherDisplay:10.37,2013-10-15 10:45:00,
2013-10-15 06:50:00,49.8,49.3,30.15,ESE,112,3.5,3.5,98,0.00,CLR,,0.00,0.0,WeatherDisplay:10.37,2013-10-15 10:50:00,
2013-10-15 06:55:00,49.8,49.3,30.15,ENE,68,3.5,3.5,98,0.00,CLR,,0.00,0.0,WeatherDisplay:10.37,2013-10-15 10:55:00,
2013-10-15 07:00:00,50.0,49.5,30.15,ESE,112,4.6,4.6,98,0.00,CLR,,0.00,0.0,WeatherDisplay:10.37,2013-10-15 11:00:00,
2013-10-15 07:05:00,49.8,49.3,30.15,SSE,158,3.5,3.5,98,0.00,CLR,,0.00,0.0,WeatherDisplay:10.37,2013-10-15 11:05:00,
2013-10-15 07:10:00,49.8,49.3,30.15,SSE,158,2.3,2.3,98,0.00,CLR,,0.00,0.0,WeatherDisplay:10.37,2013-10-15 11:10:00,
2013-10-15 07:15:00,50.0,49.5,30.15,East,90,3.5,3.5,98,0.00,CLR,,0.00,0.0,WeatherDisplay:10.37,2013-10-15 11:15:00,
2013-10-15 07:20:00,50.2,49.6,30.15,SSE,158,2.3,2.4,98,0.00,CLR,,0.00,0.0,WeatherDisplay:10.37,2013-10-15 11:20:00,
2013-10-15 07:25:00,50.4,49.8,30.15,ESE,112,4.6,4.6,98,0.00,CLR,,0.00,0.0,WeatherDisplay:10.37,2013-10-15 11:25:00,
2013-10-15 07:30:00,50.5,50.0,30.15,ENE,68,3.5,3.5,98,0.00,CLR,,0.00,0.0,WeatherDisplay:10.37,2013-10-15 11:30:00,
2013-10-15 07:35:00,50.5,50.0,30.15,ESE,112,2.3,2.3,98,0.00,CLR,,0.00,0.0,WeatherDisplay:10.37,2013-10-15 11:35:00,
2013-10-15 07:40:00,50.7,50.2,30.15,SSW,202,3.5,3.5,98,0.00,CLR,,0.00,0.0,WeatherDisplay:10.37,2013-10-15 11:40:00,
2013-10-15 07:45:00,50.7,50.2,30.15,ENE,68,3.5,3.6,98,0.00,CLR,,0.00,0.0,WeatherDisplay:10.37,2013-10-15 11:45:00,
2013-10-15 07:50:00,50.9,50.4,30.15,ESE,112,4.0,4.0,98,0.00,CLR,,0.00,0.0,WeatherDisplay:10.37,2013-10-15 11:50:00,
2013-10-15 07:55:00,50.9,50.4,30.15,East,90,5.8,5.8,98,0.00,CLR,,0.00,0.0,WeatherDisplay:10.37,2013-10-15 11:55:00,
2013-10-15 08:00:00,51.0,50.5,30.15,East,96,3.0,5.0,98,0.00,CLR,,0.00,0.0,WeatherDisplay:10.37,2013-10-15 12:00:00,
2013-10-15 08:05:00,51.3,50.7,30.15,East,97,3.0,6.0,98,0.00,CLR,,0.00,0.0,WeatherDisplay:10.37,2013-10-15 12:05:00,
2013-10-15 08:10:00,51.4,50.9,30.15,ESE,112,4.6,4.6,98,0.00,CLR,,0.00,0.0,WeatherDisplay:10.37,2013-10-15 12:10:00,
2013-10-15 08:15:00,51.6,51.1,30.15,East,98,3.0,6.0,98,0.00,CLR,,0.00,0.0,WeatherDisplay:10.37,2013-10-15 12:15:00,
2013-10-15 08:20:00,51.8,51.3,30.15,ENE,68,5.8,5.8,98,0.00,CLR,,0.00,0.0,WeatherDisplay:10.37,2013-10-15 12:20:00,
2013-10-15 08:25:00,52.0,51.4,30.15,ENE,68,3.6,3.6,98,0.00,CLR,,0.00,0.0,WeatherDisplay:10.37,2013-10-15 12:25:00,
2013-10-15 08:30:00,52.2,51.6,30.12,ESE,112,3.5,3.5,98,0.00,CLR,,0.00,0.0,WeatherDisplay:10.37,2013-10-15 12:30:00,
2013-10-15 08:35:00,52.3,51.8,30.12,ESE,112,4.6,4.6,98,0.00,CLR,,0.00,0.0,WeatherDisplay:10.37,2013-10-15 12:35:00,
2013-10-15 08:40:00,52.7,52.2,30.12,SSE,158,4.6,4.6,98,0.00,CLR,,0.00,0.0,WeatherDisplay:10.37,2013-10-15 12:40:00,
2013-10-15 08:45:00,53.0,52.5,30.12,SE,126,3.0,6.0,98,0.00,CLR,,0.00,100.0,WeatherDisplay:10.37,2013-10-15 12:45:00,
2013-10-15 08:50:00,53.1,52.5,30.12,ESE,112,4.6,4.6,98,0.00,CLR,,0.00,100.0,WeatherDisplay:10.37,2013-10-15 12:50:00,
2013-10-15 08:55:00,53.4,52.9,30.12,East,100,5.0,6.0,98,0.00,CLR,,0.00,100.0,WeatherDisplay:10.37,2013-10-15 12:55:00,
2013-10-15 09:00:00,53.7,53.2,30.15,ESE,117,3.0,6.0,98,0.00,CLR,,0.00,100.0,WeatherDisplay:10.37,2013-10-15 13:00:00,
2013-10-15 09:05:00,54.0,53.4,30.15,ESE,112,8.1,8.1,98,0.00,CLR,,0.00,100.0,WeatherDisplay:10.37,2013-10-15 13:05:00,
2013-10-15 09:10:00,54.1,53.6,30.15,ENE,68,5.8,5.8,98,0.00,CLR,,0.00,200.0,WeatherDisplay:10.37,2013-10-15 13:10:00,
2013-10-15 09:15:00,54.3,53.8,30.15,ESE,121,6.0,8.0,98,0.00,CLR,,0.00,200.0,WeatherDisplay:10.37,2013-10-15 13:15:00,
2013-10-15 09:20:00,54.3,53.8,30.15,ESE,112,5.8,5.8,98,0.00,CLR,,0.00,200.0,WeatherDisplay:10.37,2013-10-15 13:20:00,
2013-10-15 09:25:00,54.5,53.9,30.15,ESE,116,5.0,6.0,98,0.00,CLR,,0.00,200.0,WeatherDisplay:10.37,2013-10-15 13:25:00,
2013-10-15 09:30:00,54.7,54.1,30.15,SSE,158,6.9,6.9,98,0.00,CLR,,0.00,200.0,WeatherDisplay:10.37,2013-10-15 13:30:00,
2013-10-15 09:35:00,54.9,54.3,30.15,ESE,115,3.0,6.0,98,0.00,CLR,,0.00,200.0,WeatherDisplay:10.37,2013-10-15 13:35:00,
2013-10-15 09:40:00,55.0,54.5,30.15,ESE,113,5.0,8.0,98,0.00,CLR,,0.00,200.0,WeatherDisplay:10.37,2013-10-15 13:40:00,
2013-10-15 09:45:00,55.2,54.7,30.15,ESE,112,5.8,5.8,98,0.00,CLR,,0.00,200.0,WeatherDisplay:10.37,2013-10-15 13:45:00,
2013-10-15 09:50:00,55.6,55.0,30.15,East,90,3.6,3.6,98,0.00,CLR,,0.00,200.0,WeatherDisplay:10.37,2013-10-15 13:50:00,
2013-10-15 09:55:00,55.8,55.2,30.15,ESE,114,3.0,7.0,98,0.00,CLR,,0.00,200.0,WeatherDisplay:10.37,2013-10-15 13:55:00,
2013-10-15 10:00:00,56.1,55.6,30.12,ESE,112,4.6,4.6,98,0.00,CLR,,0.00,200.0,WeatherDisplay:10.37,2013-10-15 14:00:00,
2013-10-15 10:05:00,56.3,55.7,30.12,ESE,121,5.0,7.0,98,0.00,CLR,,0.00,300.0,WeatherDisplay:10.37,2013-10-15 14:05:00,
2013-10-15 10:10:00,56.5,55.9,30.12,ESE,112,3.0,8.0,98,0.00,CLR,,0.00,300.0,WeatherDisplay:10.37,2013-10-15 14:10:00,
2013-10-15 10:15:00,56.7,56.1,30.12,ESE,121,5.0,8.0,98,0.00,CLR,,0.00,300.0,WeatherDisplay:10.37,2013-10-15 14:15:00,
2013-10-15 10:20:00,56.8,56.3,30.12,ESE,116,5.0,9.0,98,0.00,CLR,,0.00,300.0,WeatherDisplay:10.37,2013-10-15 14:20:00,
2013-10-15 10:25:00,56.8,56.3,30.12,ESE,112,5.8,5.8,98,0.00,CLR,,0.00,400.0,WeatherDisplay:10.37,2013-10-15 14:25:00,
2013-10-15 10:30:00,57.2,56.4,30.12,SSE,158,6.2,6.2,97,0.00,CLR,,0.00,300.0,WeatherDisplay:10.37,2013-10-15 14:30:00,
2013-10-15 10:35:00,57.0,56.5,30.12,ESE,119,5.0,6.0,98,0.00,CLR,,0.00,200.0,WeatherDisplay:10.37,2013-10-15 14:35:00,
2013-10-15 10:40:00,57.2,56.4,30.12,SSE,158,5.8,5.8,97,0.00,CLR,,0.00,300.0,WeatherDisplay:10.37,2013-10-15 14:40:00,
2013-10-15 10:45:00,57.6,56.7,30.12,ENE,68,4.6,4.6,97,0.00,CLR,,0.00,300.0,WeatherDisplay:10.37,2013-10-15 14:45:00,
2013-10-15 10:50:00,57.9,57.1,30.12,ESE,116,2.0,5.0,97,0.00,CLR,,0.00,300.0,WeatherDisplay:10.37,2013-10-15 14:50:00,
2013-10-15 10:55:00,58.1,57.3,30.12,ESE,112,6.0,6.0,97,0.00,CLR,,0.00,400.0,WeatherDisplay:10.37,2013-10-15 14:55:00,
2013-10-15 11:00:00,58.2,57.4,30.12,ESE,122,2.0,6.0,97,0.00,CLR,,0.00,400.0,WeatherDisplay:10.37,2013-10-15 15:00:00,
2013-10-15 11:05:00,58.7,57.8,30.12,SE,124,3.0,5.0,97,0.00,CLR,,0.00,400.0,WeatherDisplay:10.37,2013-10-15 15:05:00,
2013-10-15 11:10:00,58.8,57.7,30.12,ESE,112,5.8,5.8,96,0.00,CLR,,0.00,400.0,WeatherDisplay:10.37,2013-10-15 15:10:00,
2013-10-15 11:15:00,59.2,57.7,30.12,SE,132,5.0,6.0,95,0.00,CLR,,0.00,400.0,WeatherDisplay:10.37,2013-10-15 15:15:00,
2013-10-15 11:20:00,59.4,57.9,30.12,ESE,112,4.6,4.6,95,0.00,CLR,,0.00,500.0,WeatherDisplay:10.37,2013-10-15 15:20:00,
2013-10-15 11:25:00,59.7,58.3,30.12,SSE,158,3.5,4.0,95,0.00,CLR,,0.00,500.0,WeatherDisplay:10.37,2013-10-15 15:25:00,
2013-10-15 11:30:00,59.7,58.3,30.12,ESE,112,5.8,5.8,95,0.00,CLR,,0.00,500.0,WeatherDisplay:10.37,2013-10-15 15:30:00,
2013-10-15 11:35:00,60.3,58.8,30.12,SE,130,3.0,6.0,95,0.00,CLR,,0.00,600.0,WeatherDisplay:10.37,2013-10-15 15:35:00,
2013-10-15 11:40:00,60.6,58.9,30.12,ESE,112,7.8,7.8,94,0.00,CLR,,0.00,600.0,WeatherDisplay:10.37,2013-10-15 15:40:00,
2013-10-15 11:45:00,60.4,58.4,30.09,SE,131,6.0,9.0,93,0.00,CLR,,0.00,500.0,WeatherDisplay:10.37,2013-10-15 15:45:00,
2013-10-15 11:50:00,60.6,58.6,30.09,SSE,158,3.5,3.5,93,0.00,CLR,,0.00,600.0,WeatherDisplay:10.37,2013-10-15 15:50:00,
2013-10-15 11:55:00,60.8,58.8,30.09,SSE,158,8.1,8.1,93,0.00,CLR,,0.00,700.0,WeatherDisplay:10.37,2013-10-15 15:55:00,
2013-10-15 12:00:00,61.0,58.6,30.09,SE,142,5.0,8.0,92,0.00,CLR,,0.00,800.0,WeatherDisplay:10.37,2013-10-15 16:00:00,
2013-10-15 12:05:00,61.7,59.4,30.09,SSE,158,4.6,4.6,92,0.00,CLR,,0.00,700.0,WeatherDisplay:10.37,2013-10-15 16:05:00,
2013-10-15 12:10:00,61.7,59.0,30.09,SSE,158,6.9,6.9,91,0.00,CLR,,0.00,900.0,WeatherDisplay:10.37,2013-10-15 16:10:00,
2013-10-15 12:15:00,62.1,59.1,30.09,SE,126,7.0,9.0,90,0.00,CLR,,0.00,900.0,WeatherDisplay:10.37,2013-10-15 16:15:00,
2013-10-15 12:20:00,62.6,59.3,30.09,SSE,158,6.9,6.9,89,0.00,CLR,,0.00,1100.0,WeatherDisplay:10.37,2013-10-15 16:20:00,
2013-10-15 12:25:00,62.7,59.1,30.09,SE,146,5.0,7.0,88,0.00,CLR,,0.00,900.0,WeatherDisplay:10.37,2013-10-15 16:25:00,
2013-10-15 12:30:00,63.1,59.2,30.12,SSE,158,5.9,5.9,87,0.00,CLR,,0.00,900.0,WeatherDisplay:10.37,2013-10-15 16:30:00,
2013-10-15 12:35:00,64.2,60.3,30.12,ESE,112,5.9,5.9,87,0.00,CLR,,0.00,1000.0,WeatherDisplay:10.37,2013-10-15 16:35:00,
2013-10-15 12:40:00,64.6,60.0,30.12,SSE,148,2.0,6.0,85,0.00,CLR,,0.00,1100.0,WeatherDisplay:10.37,2013-10-15 16:40:00,
2013-10-15 12:45:00,65.1,59.8,30.09,SSE,158,4.6,4.6,83,0.00,CLR,,0.00,1100.0,WeatherDisplay:10.37,2013-10-15 16:45:00,
2013-10-15 12:50:00,65.7,60.4,30.09,SSE,158,6.9,6.9,83,0.00,CLR,,0.00,900.0,WeatherDisplay:10.37,2013-10-15 16:50:00,
2013-10-15 12:55:00,65.5,59.8,30.09,SE,141,5.0,7.0,82,0.00,CLR,,0.00,800.0,WeatherDisplay:10.37,2013-10-15 16:55:00,
2013-10-15 13:00:00,65.5,59.8,30.12,SE,134,3.0,6.0,82,0.00,CLR,,0.00,600.0,WeatherDisplay:10.37,2013-10-15 17:00:00,
2013-10-15 13:05:00,65.5,59.8,30.12,SSE,157,2.0,6.0,82,0.00,CLR,,0.00,700.0,WeatherDisplay:10.37,2013-10-15 17:05:00,
2013-10-15 13:10:00,64.8,59.1,30.12,SSW,193,3.0,6.0,82,0.00,CLR,,0.00,600.0,WeatherDisplay:10.37,2013-10-15 17:10:00,
2013-10-15 13:15:00,64.6,59.3,30.09,South,180,5.0,7.0,83,0.00,CLR,,0.00,500.0,WeatherDisplay:10.37,2013-10-15 17:15:00,
2013-10-15 13:20:00,64.8,59.8,30.09,SSE,158,4.9,4.9,84,0.00,CLR,,0.00,500.0,WeatherDisplay:10.37,2013-10-15 17:20:00,
2013-10-15 13:25:00,65.1,60.2,30.09,South,176,2.0,5.0,84,0.00,CLR,,0.00,500.0,WeatherDisplay:10.37,2013-10-15 17:25:00,
2013-10-15 13:30:00,65.1,60.2,30.09,SSE,158,4.6,4.6,84,0.00,CLR,,0.00,600.0,WeatherDisplay:10.37,2013-10-15 17:30:00,
2013-10-15 13:35:00,65.3,60.3,30.09,SSE,162,3.0,5.0,84,0.00,CLR,,0.00,600.0,WeatherDisplay:10.37,2013-10-15 17:35:00,
2013-10-15 13:40:00,65.8,60.9,30.09,ESE,112,3.5,3.5,84,0.00,CLR,,0.00,600.0,WeatherDisplay:10.37,2013-10-15 17:40:00,
2013-10-15 13:45:00,66.1,60.8,30.09,SSE,154,1.0,4.0,83,0.00,CLR,,0.00,700.0,WeatherDisplay:10.37,2013-10-15 17:45:00,
2013-10-15 13:50:00,66.2,60.5,30.09,SSE,156,3.0,7.0,82,0.00,CLR,,0.00,700.0,WeatherDisplay:10.37,2013-10-15 17:50:00,
2013-10-15 13:55:00,66.4,60.4,30.09,South,172,3.0,5.0,81,0.00,CLR,,0.00,700.0,WeatherDisplay:10.37,2013-10-15 17:55:00,
2013-10-15 14:00:00,66.4,60.4,30.06,South,174,2.0,7.0,81,0.00,CLR,,0.00,800.0,WeatherDisplay:10.37,2013-10-15 18:00:00,
2013-10-15 14:05:00,66.6,60.6,30.06,SSE,156,3.0,7.0,81,0.00,CLR,,0.00,900.0,WeatherDisplay:10.37,2013-10-15 18:05:00,
2013-10-15 14:10:00,66.7,60.4,30.06,SSE,158,4.6,4.6,80,0.00,CLR,,0.00,800.0,WeatherDisplay:10.37,2013-10-15 18:10:00,
2013-10-15 14:15:00,67.1,61.1,30.06,ESE,112,2.3,2.3,81,0.00,CLR,,0.00,800.0,WeatherDisplay:10.37,2013-10-15 18:15:00,
2013-10-15 14:20:00,67.5,61.1,30.06,SSE,158,4.6,4.6,80,0.00,CLR,,0.00,800.0,WeatherDisplay:10.37,2013-10-15 18:20:00,
2013-10-15 14:25:00,67.1,60.7,30.06,SSW,202,6.9,6.9,80,0.00,CLR,,0.00,700.0,WeatherDisplay:10.37,2013-10-15 18:25:00,
2013-10-15 14:30:00,67.3,61.3,30.06,South,175,1.0,4.0,81,0.00,CLR,,0.00,600.0,WeatherDisplay:10.37,2013-10-15 18:30:00,
2013-10-15 14:35:00,67.1,60.7,30.06,South,180,5.8,5.8,80,0.00,CLR,,0.00,600.0,WeatherDisplay:10.37,2013-10-15 18:35:00,
2013-10-15 14:40:00,66.9,60.5,30.06,South,180,5.8,5.8,80,0.00,CLR,,0.00,600.0,WeatherDisplay:10.37,2013-10-15 18:40:00,
2013-10-15 14:45:00,66.9,60.5,30.06,South,182,5.0,6.0,80,0.00,CLR,,0.00,500.0,WeatherDisplay:10.37,2013-10-15 18:45:00,
2013-10-15 14:50:00,67.1,60.7,30.06,SSE,158,4.6,4.6,80,0.00,CLR,,0.00,400.0,WeatherDisplay:10.37,2013-10-15 18:50:00,
2013-10-15 14:55:00,67.1,61.1,30.06,SSW,197,2.0,4.0,81,0.00,CLR,,0.00,300.0,WeatherDisplay:10.37,2013-10-15 18:55:00,
2013-10-15 15:00:00,67.5,61.1,30.06,SSW,200,2.0,5.0,80,0.00,CLR,,0.00,600.0,WeatherDisplay:10.37,2013-10-15 19:00:00,
2013-10-15 15:05:00,67.8,61.1,30.06,South,180,4.0,4.0,79,0.00,CLR,,0.00,500.0,WeatherDisplay:10.37,2013-10-15 19:05:00,
2013-10-15 15:10:00,67.8,60.7,30.06,ENE,68,4.6,4.7,78,0.00,CLR,,0.00,700.0,WeatherDisplay:10.37,2013-10-15 19:10:00,
2013-10-15 15:15:00,68.2,60.7,30.06,South,185,3.0,6.0,77,0.00,CLR,,0.00,700.0,WeatherDisplay:10.37,2013-10-15 19:15:00,
2013-10-15 15:20:00,68.4,60.9,30.06,SSW,202,5.8,5.8,77,0.00,CLR,,0.00,700.0,WeatherDisplay:10.37,2013-10-15 19:20:00,
2013-10-15 15:25:00,68.4,61.2,30.06,South,176,2.0,5.0,78,0.00,CLR,,0.00,700.0,WeatherDisplay:10.37,2013-10-15 19:25:00,
2013-10-15 15:30:00,68.2,60.3,30.06,SSW,202,4.6,4.6,76,0.00,CLR,,0.00,600.0,WeatherDisplay:10.37,2013-10-15 19:30:00,
2013-10-15 15:35:00,68.0,60.5,30.06,South,180,5.6,5.6,77,0.00,CLR,,0.00,600.0,WeatherDisplay:10.37,2013-10-15 19:35:00,
2013-10-15 15:40:00,68.0,60.5,30.06,South,186,3.0,6.0,77,0.00,CLR,,0.00,600.0,WeatherDisplay:10.37,2013-10-15 19:40:00,
2013-10-15 15:45:00,68.0,60.5,30.03,South,190,3.0,6.0,77,0.00,CLR,,0.00,600.0,WeatherDisplay:10.37,2013-10-15 19:45:00,
2013-10-15 15:50:00,68.4,60.9,30.03,SSW,202,2.3,3.6,77,0.00,CLR,,0.00,500.0,WeatherDisplay:10.37,2013-10-15 19:50:00,
2013-10-15 15:55:00,68.7,61.2,30.03,South,188,2.0,6.0,77,0.00,CLR,,0.00,600.0,WeatherDisplay:10.37,2013-10-15 19:55:00,
2013-10-15 16:00:00,68.7,60.5,30.03,South,180,5.8,5.8,75,0.00,CLR,,0.00,600.0,WeatherDisplay:10.37,2013-10-15 20:00:00,
2013-10-15 16:05:00,68.9,60.6,30.03,South,182,3.0,5.0,75,0.00,CLR,,0.00,600.0,WeatherDisplay:10.37,2013-10-15 20:05:00,
2013-10-15 16:10:00,68.9,61.0,30.03,SSE,158,3.5,3.5,76,0.00,CLR,,0.00,600.0,WeatherDisplay:10.37,2013-10-15 20:10:00,
2013-10-15 16:15:00,69.3,61.0,30.03,East,90,5.6,5.6,75,0.00,CLR,,0.00,600.0,WeatherDisplay:10.37,2013-10-15 20:15:00,
2013-10-15 16:20:00,69.3,61.0,30.03,SSE,158,5.8,5.8,75,0.00,CLR,,0.00,500.0,WeatherDisplay:10.37,2013-10-15 20:20:00,
2013-10-15 16:25:00,69.3,60.6,30.03,SE,131,3.0,7.0,74,0.00,CLR,,0.00,500.0,WeatherDisplay:10.37,2013-10-15 20:25:00,
2013-10-15 16:30:00,68.9,60.3,30.03,SSW,202,4.7,4.7,74,0.00,SCT,,0.00,400.0,WeatherDisplay:10.37,2013-10-15 20:30:00,
2013-10-15 16:35:00,68.7,60.1,30.03,South,180,5.0,7.0,74,0.00,SCT,,0.00,400.0,WeatherDisplay:10.37,2013-10-15 20:35:00,
2013-10-15 16:40:00,68.7,60.5,30.03,SSW,202,6.2,6.2,75,0.00,SCT,,0.00,400.0,WeatherDisplay:10.37,2013-10-15 20:40:00,
2013-10-15 16:45:00,68.8,60.5,30.03,SSE,164,2.0,7.0,75,0.00,SCT,,0.00,400.0,WeatherDisplay:10.37,2013-10-15 20:45:00,
2013-10-15 16:50:00,68.9,60.6,30.03,South,178,3.0,6.0,75,0.00,SCT,,0.00,400.0,WeatherDisplay:10.37,2013-10-15 20:50:00,
2013-10-15 16:55:00,68.8,60.9,30.03,South,180,2.0,6.0,76,0.00,BKN,,0.00,300.0,WeatherDisplay:10.37,2013-10-15 20:55:00,
2013-10-15 17:00:00,68.9,60.6,30.03,ESE,112,4.5,4.5,75,0.00,BKN,,0.00,300.0,WeatherDisplay:10.37,2013-10-15 21:00:00,
2013-10-15 17:05:00,69.0,60.8,30.03,South,171,3.0,7.0,75,0.00,BKN,,0.00,300.0,WeatherDisplay:10.37,2013-10-15 21:05:00,
2013-10-15 17:10:00,69.4,60.8,30.03,SSE,158,6.4,6.4,74,0.00,BKN,,0.00,300.0,WeatherDisplay:10.37,2013-10-15 21:10:00,
2013-10-15 17:15:00,69.8,61.1,30.03,ESE,112,3.5,3.5,74,0.00,BKN,,0.00,300.0,WeatherDisplay:10.37,2013-10-15 21:15:00,
2013-10-15 17:20:00,69.7,60.6,30.03,South,180,6.0,8.0,73,0.00,BKN,,0.00,300.0,WeatherDisplay:10.37,2013-10-15 21:20:00,
2013-10-15 17:25:00,69.6,61.0,30.03,ENE,68,5.8,5.8,74,0.00,BKN,,0.00,300.0,WeatherDisplay:10.37,2013-10-15 21:25:00,
2013-10-15 17:30:00,69.4,60.8,30.03,ESE,112,6.9,6.9,74,0.00,BKN,,0.00,300.0,WeatherDisplay:10.37,2013-10-15 21:30:00,
2013-10-15 17:35:00,69.3,60.6,30.03,South,176,3.0,6.0,74,0.00,BKN,,0.00,200.0,WeatherDisplay:10.37,2013-10-15 21:35:00,
2013-10-15 17:40:00,69.1,60.8,30.03,SSW,202,9.2,9.2,75,0.00,BKN,,0.00,200.0,WeatherDisplay:10.37,2013-10-15 21:40:00,
2013-10-15 17:46:00,69.1,60.8,30.03,SSW,202,4.3,4.3,75,0.00,BKN,,0.00,200.0,WeatherDisplay:10.37,2013-10-15 21:46:00,
2013-10-15 17:51:00,68.9,60.6,30.03,SSE,158,5.8,5.8,75,0.00,BKN,,0.00,100.0,WeatherDisplay:10.37,2013-10-15 21:51:00,
2013-10-15 17:56:00,68.7,60.8,30.03,SSE,158,3.5,3.5,76,0.00,BKN,,0.00,100.0,WeatherDisplay:10.37,2013-10-15 21:56:00,
2013-10-15 18:01:00,68.4,60.9,30.03,SSE,158,3.5,3.5,77,0.00,BKN,,0.00,100.0,WeatherDisplay:10.37,2013-10-15 22:01:00,
2013-10-15 18:06:00,68.2,61.1,30.03,SSE,158,2.3,2.3,78,0.00,BKN,,0.00,100.0,WeatherDisplay:10.37,2013-10-15 22:06:00,
2013-10-15 18:11:00,67.8,61.1,30.03,SSW,202,4.6,4.6,79,0.00,CLR,,0.00,0.0,WeatherDisplay:10.37,2013-10-15 22:11:00,
2013-10-15 18:16:00,67.6,61.2,30.00,SSE,158,4.6,4.6,80,0.00,CLR,,0.00,0.0,WeatherDisplay:10.37,2013-10-15 22:16:00,
2013-10-15 18:21:00,67.3,60.9,30.00,WSW,248,3.5,3.5,80,0.00,CLR,,0.00,0.0,WeatherDisplay:10.37,2013-10-15 22:21:00,
2013-10-15 18:26:00,67.1,61.1,30.00,South,180,2.3,2.6,81,0.00,CLR,,0.00,0.0,WeatherDisplay:10.37,2013-10-15 22:26:00,
2013-10-15 18:31:00,66.7,61.1,30.03,SSE,158,4.7,4.7,82,0.00,CLR,,0.00,0.0,WeatherDisplay:10.37,2013-10-15 22:31:00,
2013-10-15 18:36:00,66.6,60.9,30.03,SSE,158,2.6,2.6,82,0.00,CLR,,0.00,0.0,WeatherDisplay:10.37,2013-10-15 22:36:00,
2013-10-15 18:41:00,66.4,60.7,30.03,ESE,112,2.3,2.3,82,0.00,CLR,,0.00,0.0,WeatherDisplay:10.37,2013-10-15 22:41:00,
2013-10-15 18:46:00,66.2,60.9,30.00,ESE,112,6.7,6.7,83,0.00,CLR,,0.00,0.0,WeatherDisplay:10.37,2013-10-15 22:46:00,
2013-10-15 18:51:00,66.0,61.0,30.00,South,180,4.6,4.6,84,0.00,CLR,,0.00,0.0,WeatherDisplay:10.37,2013-10-15 22:51:00,
2013-10-15 18:56:00,65.8,61.2,30.00,SSE,158,3.5,3.5,85,0.00,CLR,,0.00,0.0,WeatherDisplay:10.37,2013-10-15 22:56:00,
2013-10-15 19:01:00,65.7,61.0,30.00,ESE,112,4.6,4.6,85,0.00,CLR,,0.00,0.0,WeatherDisplay:10.37,2013-10-15 23:01:00,
2013-10-15 19:06:00,65.7,61.4,30.00,ESE,112,6.0,6.0,86,0.00,CLR,,0.00,0.0,WeatherDisplay:10.37,2013-10-15 23:06:00,
2013-10-15 19:11:00,65.7,61.4,30.00,ESE,112,5.9,5.9,86,0.00,CLR,,0.00,0.0,WeatherDisplay:10.37,2013-10-15 23:11:00,
2013-10-15 19:16:00,65.7,61.4,30.00,ESE,112,5.9,5.9,86,0.00,CLR,,0.00,0.0,WeatherDisplay:10.37,2013-10-15 23:16:00,
2013-10-15 19:21:00,65.5,61.5,30.00,ESE,112,5.8,5.8,87,0.00,CLR,,0.00,0.0,WeatherDisplay:10.37,2013-10-15 23:21:00,
2013-10-15 19:26:00,65.7,61.7,30.00,SSE,158,6.9,6.9,87,0.00,CLR,,0.00,0.0,WeatherDisplay:10.37,2013-10-15 23:26:00,
2013-10-15 19:31:00,65.5,61.5,30.00,SE,135,4.6,4.6,87,0.00,CLR,,0.00,0.0,WeatherDisplay:10.37,2013-10-15 23:31:00,
2013-10-15 19:36:00,65.5,61.5,30.00,SSE,158,5.8,5.8,87,0.00,CLR,,0.00,0.0,WeatherDisplay:10.37,2013-10-15 23:36:00,
2013-10-15 19:41:00,65.3,61.3,30.00,SE,135,4.6,4.6,87,0.00,CLR,,0.00,0.0,WeatherDisplay:10.37,2013-10-15 23:41:00,
2013-10-15 19:46:00,65.5,61.5,30.00,SSE,158,5.8,5.9,87,0.00,CLR,,0.00,0.0,WeatherDisplay:10.37,2013-10-15 23:46:00,
2013-10-15 19:51:00,65.5,61.5,30.00,ESE,112,5.4,5.4,87,0.00,CLR,,0.00,0.0,WeatherDisplay:10.37,2013-10-15 23:51:00,
2013-10-15 19:56:00,65.3,61.3,30.00,SSE,158,4.9,4.9,87,0.00,CLR,,0.00,0.0,WeatherDisplay:10.37,2013-10-15 23:56:00,
2013-10-15 20:01:00,65.3,61.3,30.00,ESE,112,5.8,5.8,87,0.00,CLR,,0.00,0.0,WeatherDisplay:10.37,2013-10-16 00:01:00,
2013-10-15 20:06:00,65.3,61.7,30.00,SSE,158,6.0,6.0,88,0.00,CLR,,0.00,0.0,WeatherDisplay:10.37,2013-10-16 00:06:00,
2013-10-15 20:11:00,65.3,61.7,30.00,SSW,202,3.5,3.5,88,0.00,CLR,,0.00,0.0,WeatherDisplay:10.37,2013-10-16 00:11:00,
2013-10-15 20:16:00,65.3,61.7,30.00,ESE,112,3.5,3.5,88,0.00,CLR,,0.00,0.0,WeatherDisplay:10.37,2013-10-16 00:16:00,
2013-10-15 20:21:00,65.1,61.5,30.00,SSE,158,6.2,6.2,88,0.00,CLR,,0.00,0.0,WeatherDisplay:10.37,2013-10-16 00:21:00,
2013-10-15 20:26:00,65.1,61.5,30.00,SE,135,4.6,4.6,88,0.00,CLR,,0.00,0.0,WeatherDisplay:10.37,2013-10-16 00:26:00,
2013-10-15 20:31:00,65.1,61.5,30.00,ENE,68,5.8,5.8,88,0.00,CLR,,0.00,0.0,WeatherDisplay:10.37,2013-10-16 00:31:00,
2013-10-15 20:36:00,65.1,61.8,30.00,SSW,202,5.8,5.8,89,0.00,CLR,,0.00,0.0,WeatherDisplay:10.37,2013-10-16 00:36:00,
2013-10-15 20:41:00,65.1,61.8,30.00,SSE,158,9.8,9.8,89,0.00,CLR,,0.00,0.0,WeatherDisplay:10.37,2013-10-16 00:41:00,
2013-10-15 20:46:00,65.1,61.8,30.00,South,180,5.8,5.8,89,0.00,CLR,,0.00,0.0,WeatherDisplay:10.37,2013-10-16 00:46:00,
2013-10-15 20:51:00,65.1,61.8,30.00,SSW,202,6.0,6.0,89,0.00,CLR,,0.00,0.0,WeatherDisplay:10.37,2013-10-16 00:51:00,
2013-10-15 20:56:00,65.1,61.8,30.00,SSE,158,5.8,5.8,89,0.00,CLR,,0.00,0.0,WeatherDisplay:10.37,2013-10-16 00:56:00,
2013-10-15 21:01:00,65.1,61.8,30.00,SSE,158,6.9,6.9,89,0.00,CLR,,0.00,0.0,WeatherDisplay:10.37,2013-10-16 01:01:00,
2013-10-15 21:06:00,64.9,61.6,30.00,SSE,158,5.9,5.9,89,0.00,CLR,,0.00,0.0,WeatherDisplay:10.37,2013-10-16 01:06:00,
2013-10-15 21:11:00,64.9,61.6,30.00,ESE,112,4.6,4.6,89,0.00,CLR,,0.00,0.0,WeatherDisplay:10.37,2013-10-16 01:11:00,
2013-10-15 21:16:00,64.8,61.4,29.97,SSW,202,4.3,4.3,89,0.00,CLR,,0.00,0.0,WeatherDisplay:10.37,2013-10-16 01:16:00,
2013-10-15 21:21:00,64.8,61.4,29.97,SSW,202,6.9,6.9,89,0.00,CLR,,0.00,0.0,WeatherDisplay:10.37,2013-10-16 01:21:00,
2013-10-15 21:26:00,64.8,61.4,29.97,South,180,5.6,5.6,89,0.00,CLR,,0.00,0.0,WeatherDisplay:10.37,2013-10-16 01:26:00,
2013-10-15 21:31:00,64.8,61.4,30.00,SSW,202,3.5,3.5,89,0.00,CLR,,0.00,0.0,WeatherDisplay:10.37,2013-10-16 01:31:00,
2013-10-15 21:36:00,64.6,61.6,30.00,South,180,3.5,3.5,90,0.00,CLR,,0.00,0.0,WeatherDisplay:10.37,2013-10-16 01:36:00,
2013-10-15 21:41:00,64.6,61.6,30.00,South,180,3.5,3.6,90,0.00,CLR,,0.00,0.0,WeatherDisplay:10.37,2013-10-16 01:41:00,
2013-10-15 21:46:00,64.6,61.6,30.00,SSE,158,5.4,5.4,90,0.00,CLR,,0.00,0.0,WeatherDisplay:10.37,2013-10-16 01:46:00,
2013-10-15 21:51:00,64.4,61.4,30.00,SSW,202,3.5,3.5,90,0.00,CLR,,0.00,0.0,WeatherDisplay:10.37,2013-10-16 01:51:00,
2013-10-15 21:56:00,64.4,61.4,30.00,SSW,202,3.1,3.1,90,0.00,CLR,,0.00,0.0,WeatherDisplay:10.37,2013-10-16 01:56:00,
2013-10-15 22:01:00,64.4,61.4,30.00,SSW,202,3.5,3.5,90,0.00,CLR,,0.00,0.0,WeatherDisplay:10.37,2013-10-16 02:01:00,
2013-10-15 22:06:00,64.2,61.5,30.00,SSE,158,4.0,4.0,91,0.00,CLR,,0.00,0.0,WeatherDisplay:10.37,2013-10-16 02:06:00,
2013-10-15 22:11:00,64.2,61.5,30.00,South,180,3.5,3.5,91,0.00,CLR,,0.00,0.0,WeatherDisplay:10.37,2013-10-16 02:11:00,
2013-10-15 22:16:00,64.2,61.5,30.00,South,180,2.3,2.3,91,0.00,CLR,,0.00,0.0,WeatherDisplay:10.37,2013-10-16 02:16:00,
2013-10-15 22:21:00,64.2,61.5,30.00,SSW,202,2.3,2.4,91,0.00,CLR,,0.00,0.0,WeatherDisplay:10.37,2013-10-16 02:21:00,
2013-10-15 22:26:00,64.2,61.5,30.00,SSE,158,4.6,4.6,91,0.00,CLR,,0.00,0.0,WeatherDisplay:10.37,2013-10-16 02:26:00,
2013-10-15 22:31:00,64.2,61.5,30.00,SSW,202,3.5,3.5,91,0.00,CLR,,0.00,0.0,WeatherDisplay:10.37,2013-10-16 02:31:00,
2013-10-15 22:36:00,64.2,61.5,30.00,SSW,202,2.6,2.6,91,0.00,CLR,,0.00,0.0,WeatherDisplay:10.37,2013-10-16 02:36:00,
2013-10-15 22:41:00,64.2,61.5,30.00,SSW,202,2.3,2.3,91,0.00,CLR,,0.00,0.0,WeatherDisplay:10.37,2013-10-16 02:41:00,
2013-10-15 22:46:00,64.2,61.5,30.00,SSE,158,4.6,4.6,91,0.00,CLR,,0.00,0.0,WeatherDisplay:10.37,2013-10-16 02:46:00,
2013-10-15 22:51:00,64.2,61.5,30.00,SSW,202,3.5,3.5,91,0.00,CLR,,0.00,0.0,WeatherDisplay:10.37,2013-10-16 02:51:00,
2013-10-15 22:56:00,64.2,61.8,30.00,SSE,158,2.3,2.3,92,0.00,CLR,,0.00,0.0,WeatherDisplay:10.37,2013-10-16 02:56:00,
2013-10-15 23:01:00,64.2,61.8,30.00,SSE,158,2.4,2.4,92,0.00,CLR,,0.00,0.0,WeatherDisplay:10.37,2013-10-16 03:01:00,
2013-10-15 23:06:00,64.4,61.7,30.00,SSE,158,2.3,2.3,91,0.00,CLR,,0.00,0.0,WeatherDisplay:10.37,2013-10-16 03:06:00,
2013-10-15 23:11:00,64.4,61.7,30.00,SSW,202,3.5,3.5,91,0.00,CLR,,0.00,0.0,WeatherDisplay:10.37,2013-10-16 03:11:00,
2013-10-15 23:17:00,64.2,61.8,30.00,SSW,202,4.6,4.6,92,0.00,CLR,,0.00,0.0,WeatherDisplay:10.37,2013-10-16 03:17:00,
2013-10-15 23:22:00,64.2,62.2,30.00,SSW,202,3.5,3.5,93,0.00,CLR,,0.00,0.0,WeatherDisplay:10.37,2013-10-16 03:22:00,
2013-10-15 23:27:00,64.0,62.0,30.00,SSW,202,4.6,4.6,93,0.00,CLR,,0.00,0.0,WeatherDisplay:10.37,2013-10-16 03:27:00,
2013-10-15 23:32:00,63.9,62.1,30.00,SSW,202,3.8,3.8,94,0.00,CLR,,0.00,0.0,WeatherDisplay:10.37,2013-10-16 03:32:00,
2013-10-15 23:37:00,63.9,62.1,30.00,South,180,5.8,5.8,94,0.00,CLR,,0.00,0.0,WeatherDisplay:10.37,2013-10-16 03:37:00,
2013-10-15 23:42:00,63.9,62.1,30.00,SSW,202,3.5,3.5,94,0.00,CLR,,0.00,0.0,WeatherDisplay:10.37,2013-10-16 03:42:00,
2013-10-15 23:47:00,63.9,62.4,30.00,South,180,4.6,4.6,95,0.00,CLR,,0.00,0.0,WeatherDisplay:10.37,2013-10-16 03:47:00,
2013-10-15 23:52:00,63.9,62.4,30.00,SSW,202,3.5,3.5,95,0.00,CLR,,0.00,0.0,WeatherDisplay:10.37,2013-10-16 03:52:00,
2013-10-15 23:57:00,63.9,62.4,30.00,SSE,158,5.8,5.8,95,0.00,CLR,,0.00,0.0,WeatherDisplay:10.37,2013-10-16 03:57:00,